Regional Weather Roundup
Issued by NWS

Home | Current Version | Previous Version | Text Only | Print | Product List | Glossary Off
Versions: 1 2 3 4 5 6 7 8 9 10 11 12 13 14 15 16 17 18 19 20 21 22 23 24 25 26 27 28 29 30 31 32 33 34 35 36 37 38 39 40 41 42 43 44 45 46 47 48 49 50

000
ASUS45 KCYS 251110
RWRWY

WYOMING REGIONAL WEATHER ROUNDUP
NATIONAL WEATHER SERVICE CHEYENNE WY
400 AM MST TUE NOV 25 2014

NOTE:  "FAIR" INDICATES FEW OR NO CLOUDS BELOW 12,000 FEET
WITH NO SIGNIFICANT WEATHER AND/OR OBSTRUCTIONS TO VISIBILITY.

WYZ001-251200-
YELLOWSTONE NATIONAL PARK

CITY           SKY/WX    TMP DP  RH WIND       PRES   REMARKS
LK YELLOWSTONE   N/A     20  16  84 VRB3      30.06F
W YELLOWSTONE  NOT AVBL

$$
WYZ002>013-054>058-071-098>099-251200-
NORTHERN WYOMING

CITY           SKY/WX    TMP DP  RH WIND       PRES   REMARKS
JACKSON        CLOUDY    25  23  93 S8        30.14F WCI  16
CODY           CLOUDY    36  19  51 W7G20     29.89F WCI  30
GREYBULL       CLOUDY    24  18  77 NW5       29.96F WCI  18
WORLAND        CLOUDY    20  15  81 NE3       29.93F
SHERIDAN       CLOUDY    33  18  53 N8        29.82F WCI  26
BUFFALO        CLOUDY    31   8  38 S9        29.82F WCI  23
GILLETTE       CLOUDY    31  14  49 SW18G26   29.83F WCI  19
HULETT           N/A     30  19  64 MISG        N/A
NEWCASTLE      FAIR      23  21  93 SE8       29.95F WCI  14

$$
WYZ014>020-022>026-101>103-251200-
CENTRAL WYOMING

CITY           SKY/WX    TMP DP  RH WIND       PRES   REMARKS
BIG PINEY      CLOUDY    23  10  57 CALM      30.17F
PINEDALE       CLOUDY    21  18  86 NW12G35   30.17F WCI   9
DUBOIS         CLOUDY    23  18  80 NW30G37   30.00S HAZE    WCI   5
LANDER         CLOUDY    28   6  39 SW10      29.96F WCI  19
RIVERTON       CLOUDY    26   9  48 S10       29.97F WCI  16
CASPER         CLOUDY    27  12  53 SW24G32   29.97F WCI  12
DOUGLAS        CLOUDY   N/A N/A N/A S7        29.96F

$$
WYZ021-027>030-104>119-251200-
SOUTHERN WYOMING

CITY           SKY/WX    TMP DP  RH WIND       PRES   REMARKS
EVANSTON       PTCLDY    19  11  70 SW15      30.26F WCI   5
FORT BRIDGER   CLOUDY    26  16  66 SW14      30.27F WCI  14
ROCK SPRINGS   CLOUDY    22  11  62 W20G31    30.17F WCI   7
DIXON          CLOUDY    24  12  58 SW14G21   30.25S WCI  12
RAWLINS        CLOUDY    22  10  60 SW26G39   30.10F WCI   5
SARATOGA       PTSUNNY   27  10  50 SW22G33   30.13F WCI  12
LARAMIE        CLOUDY    20   8  60 SW15      30.03F WCI   6
CHEYENNE       PTCLDY    27   9  46 W26G37    30.00F WCI  12
TORRINGTON     MOCLDY    22  14  71 W6        30.02F WCI  14
PINE BLUFFS    FAIR      23  12  63 SW12      30.05F WCI  12

$$



USA.gov is the U.S. government's official web portal to all federal, state and local government web resources and services.